Sherman Airfield (FLV)
Ft Leavenworth, KS
Field Elevation: 772
Lat: 39°22.10N  Long: 94°54.89W
CTAF/Unicom Freq: 126.2000
   
    
Weather Advisories
10/21/2014 16:43 Z
Altimeter 30.14" Hg
Wind 150° @ 0 KT
Gusts --
Visibility 10 SM
Temperature 19° C (66° F)
Dewpoint 8° C (46° F)
Relative Humidity 49%
Density Altitude --
Condensation Altitude 6,000 feet
  Wind and Runways
Indicated Runway = 16
History
 
 
More Info
All DigiWx sites map
Weather Radar
NOAA Forecast
 
Airport IQ 5010
(K68) Garnett Municipal
(GRE) Greenville
 
about DigiWx
 
FAA Disclaimer: The data displayed is for advisory purposes only and is not to be used for flight planning or operations. For official data, please call (not available) to hear the current automated AWOS voice message.
  METAR FLV 211643Z AUTO 15000KT 10SM 19/08 A3014